Flag for U.S.A. Weather past 2 weeks in Atlantic City, New Jersey, U.S.A.

Now
36 °F

Sunny.


Feels Like: 30 °F
Forecast: 30 / 40 °F
Wind: 8 mph from Northwest

Location: Atlantic City International Airport

Current Time: Dec 21, 2014 at 11:43:31 AM

Latest Report: Dec 21, 2014 at 10:54 AM


Visibility: 10 mi

Pressure: 30.33 "Hg

Humidity: 59%

Dew point: 23 °F

Location of Atlantic CityLocation

Historic Weather in Atlantic City — Graph

°F

Atlantic City temperature yesterday

Maximum temperature yesterday: 35 °F (at 1:54 PM)
Minimum temperature yesterday: 21 °F (at 1:54 AM)
Average temperature yesterday: 30 °F

Past Weeks' High & Low Weather Summary

 TemperatureHumidityPressure
High55 °F (Dec 6, 12:54 PM)100% (Dec 6, 3:54 PM)30.57 "Hg (Dec 6, 3:54 PM)
Low21 °F (Dec 20, 1:54 AM)35% (Dec 7, 1:54 PM)29.66 "Hg (Dec 10, 1:54 PM)
Average38 °F74%30.05 "Hg
* Reported Dec 6 10:54 AM — Dec 21 10:54 AM, Atlantic City, Weather by CustomWeather, © 2014

Note: Actual official high and low records may vary slightly from our data, if they occured in-between our weather recording intervals... More about our weather records

Advertising

Atlantic City weather history for previous 24 hours

 ConditionsComfort  
Time TempWeatherWind HumidityBarometerVisibility
10:54 AM
Dec 21
36 °FSunny.8 mph59%30.33 "Hg10 mi
9:54 AM33 °FOvercast.3 mph70%30.34 "Hg10 mi
8:54 AM31 °FOvercast.5 mph79%30.33 "Hg8 mi
7:54 AM29 °FOvercast.No wind79%30.33 "Hg10 mi
6:54 AM28 °FOvercast.3 mph81%30.32 "Hg10 mi
5:54 AM28 °FOvercast.No wind81%30.30 "Hg10 mi
4:54 AM28 °FPassing clouds.No wind78%30.29 "Hg10 mi
3:54 AM28 °FOvercast.3 mph78%30.30 "Hg10 mi
2:54 AM29 °FPassing clouds.3 mph75%30.29 "Hg10 mi
1:54 AM30 °FMostly cloudy.No wind75%30.29 "Hg10 mi
12:54 AM29 °FOvercast.3 mph82%30.29 "Hg10 mi
11:54 PM
Dec 20
29 °FMostly cloudy.5 mph79%30.30 "Hg10 mi
10:54 PM28 °FOvercast.No wind78%30.30 "Hg10 mi
9:54 PM28 °FOvercast.No wind75%30.30 "Hg10 mi
8:54 PM26 °FOvercast.5 mph81%30.30 "Hg10 mi
7:54 PM30 °FClear.3 mph69%30.30 "Hg10 mi
6:54 PM30 °FClear.3 mph66%30.29 "Hg10 mi
5:54 PM31 °FPassing clouds.5 mph67%30.28 "Hg10 mi
4:54 PM33 °FOvercast.6 mph61%30.28 "Hg10 mi
3:54 PM34 °FOvercast.7 mph61%30.26 "Hg10 mi
2:54 PM35 °FOvercast.7 mph59%30.25 "Hg10 mi
1:54 PM35 °FOvercast.7 mph59%30.25 "Hg10 mi
12:54 PM34 °FOvercast.7 mph59%30.28 "Hg10 mi
11:54 AM34 °FOvercast.8 mph61%30.27 "Hg10 mi
Weather by CustomWeather, © 2014

See weather overviewHow to use our weather pages